ONEWEB-0257, 48975

Orbit data source: Space-Track

ONEWEB-0257, 48975 is a payload satellite owned by One Web (NAA) (UK) in LEO that was launched on Thu, 01 Jul 2021 UTC via a SOYUZ-2-1B launch vehicle from the Vostochny Cosmodrome (VOSTO). Payload-class satellites include a variety of spacecraft equipped with specific instruments for various scientific and technological missions. These include communications satellites like Starlink; space stations such as the ISS; scientific satellites like the Hubble; Earth observation satellites from companies like Planet Labs, Umbra, and HawkEye 360; GPS; miniature CubeSats for education and research; and military/defense satellites.

Loading next visibility...
Identifier
48975, 2021-060J
Orbit
LEO
Country
Flag of UKUK
Related business
Manufacturer
One Web
Mission
Operational Commercial Communications
Bus & Motor
ARROW, Unknown motor
Mass
148 kg wet, ~140 kg dry
Launch date (UTC)
2021-07-01 (4 years ago)
Launch vehicle
SOYUZ-2-1B
Launch site
Vostochny Cosmodrome (VOSTO)
Object type
Payload
Rocket body
Debris
Shape & HBR
Trap Box + 2 Pan, 6.7 m
Radar Cross Section
3.464 m², Large (>1 m²)

Expand to show TLE details & history
Last TLE update: 9 hours ago

TLE from 9 hours ago
0 ONEWEB-0257
1 48975U 21060J   25349.79808994 -.00000089  00000-0 -26604-3 0  9999
2 48975  87.9047 265.2870 0001868  71.1714 288.9620 13.16596117215456
Epoch: 2025-12-15T19:09Z
TLE epoch observation values (Epoch: 2025-12-15T19:09:14.970Z)
Latitude
0.00002°
Longitude
-106.71686°
Altitude
1,200.187 km
Speed
7.254 km/s
True Right ascension
17h 41m 08s
True Declination
0° 00' 00"
Sunlit
Object was in daylight at epoch
Visualization orbit readout
Latitude
Unknown
Longitude
Unknown
Altitude
Unknown
Speed
Unknown
Apparent Right ascension
Unknown
Apparent Declination
Unknown
Sunlit
N/A
Visualization observer readout
Local Sidereal Time
03:06:11
Azimuth
Unknown
Elevation
Unknown
Doppler factor
Unknown
Orbital elements
Apogee altitude
1,196.275 km
Perigee altitude
1,193.445 km
Semi-major axis
7,572.997 km
Eccentricity
0.00019
Inclination
87.9047°
RAAN
265.287°
Arg. of periapsis
71.1714°
True anomaly
288.94175°
Mean anomaly
288.962°
Eccentric anomaly
288.95188°
Mean motion
3.29338 °/min
Orbital period
109.31 mins
BSTAR
-0.00026604
Loading maneuver chart data...
Computing Atmospheric mass density...
Loading historical data...
Loading historical data...
Loading historical data...
Loading historical data...
Loading historical data...
Loading historical data...
Loading historical data...

Documentation

Showing up to 5 results
|